Location: Seattle
(47.6064°N, 122.3308°W)
Time: 06:35:32
(UTC-07:00)

Tiros 1 - Pass Details

Date: 06 August 2021
Orbit: 630 x 663 km, 48.4° (Epoch: 25 September)

Event Time Altitude Azimuth Distance (km) Brightness Sun altitude
Rises 23:01:49 0° 285° (WNW) 2,975 11.3 -19.4°
Reaches altitude 10° 23:04:27 10° 273° (W) 2,055 10.2 -19.7°
Maximum altitude 23:08:23 26° 217° (SW) 1,260 8.4 -20.0°
Enters shadow 23:08:49 26° 208° (SSW) 1,271 8.4 -20.1°
